Location: Härggis
(46.9540°N, 8.4897°E)
Time: 20:07:39
(UTC+00:00)

CBERS-1 - Pass Details

Date: 27 May 2022
Orbit: 770 x 776 km, 98.7° (Epoch: 02 July)

Event Time Altitude Azimuth Distance (km) Brightness Sun altitude
Rises 02:48:19 0° 12° (NNE) 3,257 8.3 -7.6°
Reaches altitude 10° 02:50:38 10° 11° (N) 2,326 7.4 -7.3°
Maximum altitude 02:55:45 74° 288° (WNW) 806 4.1 -6.7°
Drops below altitude 10° 03:00:50 10° 203° (SSW) 2,313 5.9 -6.0°
Enters shadow 03:02:18 - 202° (SSW) 2,903 6.4 -5.8°
